Regional Weather Roundup
Issued by NWS Glasgow, MT

Home | Current Version | Previous Version | Text Only | Print | Product List | Glossary On
Versions: 1 2 3 4 5 6 7 8 9 10 11 12 13 14 15 16 17 18 19 20 21 22 23 24 25 26 27
000
ASUS45 KGGW 301715
RWRGGW
HOURLY REGIONAL WEATHER ROUNDUP FOR NORTHEAST MONTANA
NATIONAL WEATHER SERVICE GLASGOW MONTANA
1100 AM MDT THU MAR 30 2017

NOTE: "FAIR" INDICATES FEW OR NO CLOUDS BELOW 12,000 FEET WITH NO
SIGNIFICANT WEATHER AND/OR OBSTRUCTIONS TO VISISBILITY.

NORTHEAST MONTANA


CITY           SKY/WX    TMP DP  RH WIND       PRES   REMARKS
GLASGOW        MOSUNNY   55  35  47 NW7       29.68F
PLENTYWOOD       N/A     57  30  35 S7          N/A
WOLF POINT     SUNNY     58  36  43 CALM      29.68S
JORDAN           N/A     57  36  45 N10       29.69R
WINNETT          N/A     52  36  54 NW3         N/A
SIDNEY         SUNNY     59  40  49 SE6       29.68F
GLENDIVE       CLOUDY    57  39  51 VRB5      29.69S
MALTA            N/A     53  38  56 SW5         N/A
SCOBEY           N/A     57  31  37 CALM      29.69S

FORT PECK REPORTS


CITY           SKY/WX    TMP DP  RH WIND       PRES   REMARKS
FORT PECK        N/A     44  34  67 W3          N/A
THE PINES        N/A     55  33  43 CALM        N/A

SOUTHEAST MONTANA


CITY           SKY/WX    TMP DP  RH WIND       PRES   REMARKS
BILLINGS       LGT RAIN  46  42  86 W3        29.75R
MILES CITY     CLOUDY    55  38  52 W6        29.68S
BAKER          CLOUDY    54  39  57 S7        29.70F
LIVINGSTON     LGT RAIN  42  37  82 W8        29.76S

CENTRAL MONTANA


CITY           SKY/WX    TMP DP  RH WIND       PRES   REMARKS
HAVRE          SUNNY     55  35  47 NW5       29.72S
LEWISTOWN      LGT RAIN  47  35  63 N6        29.74R
GREAT FALLS    MOSUNNY   53  30  41 NW7       29.73R
CUT BANK       SUNNY     50  29  44 W9        29.73S
HELENA         SUNNY     53  33  46 W3        29.74F
BUTTE          PTSUNNY   44  30  57 NE8       29.75S
BOZEMAN        CLOUDY    43  39  86 SE5       29.77F

WESTERN MONTANA


CITY           SKY/WX    TMP DP  RH WIND       PRES   REMARKS
MISSOULA       CLOUDY    48  39  71 NW14      29.82S
KALISPELL      NOT AVBL

NORTH DAKOTA


CITY           SKY/WX    TMP DP  RH WIND       PRES   REMARKS
WILLISTON      MOSUNNY   55  40  56 SE6       29.70F
DICKINSON      CLOUDY    49  37  63 SE17      29.70F
MINOT          CLOUDY    50  38  63 S12       29.76S
BISMARCK       CLOUDY    47  35  63 S16       29.84S

SOUTHERN SASKATCHEWAN


CITY           SKY/WX    TMP DP  RH WIND       PRES   REMARKS
REGINA         PTSUNNY   54  32  43 E7        29.72S
MOOSE JAW      PTSUNNY   54  36  50 E10       29.71F
ESTEVAN        PTSUNNY   52  34  50 E13       29.73R
SWIFT CURRENT  SUNNY     52  34  50 W5        29.68R





USA.gov is the U.S. government's official web portal to all federal, state and local government web resources and services.